Location: Sabalos
(43.2860°N, 0.1414°E)
Time: 08:39:55
(UTC+00:00)

OAO 3 Rocket - Pass Details

Date: 05 July 2020
Orbit: 629 x 683 km, 35.0° (Epoch: 14 August)

Event Time Altitude Azimuth Distance (km) Brightness Sun altitude
Rises 21:15:32 0° 260° (W) 3,004 7.0 -13.5°
Reaches altitude 10° 21:18:13 10° 248° (WSW) 2,097 6.0 -13.8°
Maximum altitude 21:22:16 26° 192° (SSW) 1,320 4.4 -14.3°
Enters shadow 21:23:57 21° 161° (SSE) 1,487 4.4 -14.5°
